EW0923 Weather Reports


Display with metric or nautical units.
time (UTC)temp
F
wind
direction
speed
MPH
gust
MPH
rain 1hr
in
rain 24hr
in
rain mn
in
humidity
%
barometer
mb
20260903084025 70 0 0.0 2.0 0.04 0.54 0.46 96 1016.1
20260903083528 70 0 0.0 2.0 0.04 0.54 0.46 96 1016.1
20260903083041 70 99 0.0 0.0 0.04 0.54 0.46 96 1015.9
20260903082531 70 155 0.0 1.0 0.02 0.52 0.44 96 1015.8
20260903082028 70 0 0.0 1.0 0.01 0.51 0.43 96 1016.3
20260903081550 70 155 0.0 1.0 0.01 0.51 0.43 96 1016.1
20260903081030 70 155 0.0 2.0 0.00 0.50 0.42 96 1016.1
20260903080532 70 0 1.0 2.0 0.00 0.50 0.42 96 1015.9
20260903080046 70 185 0.0 1.0 0.01 0.50 0.42 96 1016.0
20260903075528 70 186 0.0 1.0 0.02 0.50 0.42 96 1016.1
20260903075031 70 0 0.0 1.0 0.04 0.50 0.42 96 1016.3
20260903074547 70 0 0.0 2.0 0.04 0.50 0.42 96 1016.2
20260903074028 70 0 0.0 2.0 0.05 0.50 0.42 96 1016.1
20260903073528 70 0 0.0 2.0 0.05 0.50 0.42 96 1016.0
20260903073053 70 0 0.0 2.0 0.06 0.50 0.42 96 1015.9
20260903072527 70 0 0.0 2.0 0.06 0.50 0.42 96 1016.0
20260903072027 70 124 0.0 2.0 0.07 0.50 0.42 95 1016.1
20260903071615 70 0 1.0 2.0 0.12 0.50 0.42 95 1016.0
20260903071029 70 209 0.0 3.0 0.30 0.50 0.42 95 1016.1
20260903070531 70 0 0.0 3.0 0.42 0.50 0.42 95 1016.1
20260903070100 70 68 0.0 3.0 0.41 0.49 0.41 95 1016.0
20260903065528 70 144 1.0 3.0 0.39 0.47 0.39 95 1016.2
20260903065027 70 215 1.0 4.0 0.38 0.46 0.38 95 1016.3
20260903064546 70 166 1.0 4.0 0.38 0.46 0.38 95 1016.4
20260903064028 70 115 1.0 4.0 0.37 0.45 0.37 95 1016.3
20260903063528 70 103 1.0 4.0 0.37 0.45 0.37 95 1016.7
20260903063103 70 109 0.0 4.0 0.36 0.44 0.36 95 1017.4
20260903062527 70 49 0.0 6.0 0.35 0.43 0.35 95 1017.7
20260903062029 70 54 1.0 6.0 0.34 0.42 0.34 94 1017.9
20260903061550 70 329 1.0 5.0 0.28 0.36 0.28 94 1018.3
20260903061029 70 350 1.0 6.0 0.08 0.16 0.08 94 1018.6
20260903060529 71 311 1.0 6.0 0.00 0.08 0.00 94 1018.2
20260903060050 70 51 3.0 6.0 0.00 0.08 0.00 94 1017.4
20260903055529 71 42 2.0 4.0 0.00 0.08 0.00 94 1016.9
20260903055026 71 0 0.0 3.0 0.00 0.08 0.00 94 1017.0
20260903054549 71 37 1.0 3.0 0.00 0.08 0.00 94 1016.8
20260903054028 71 49 1.0 3.0 0.00 0.08 0.00 94 1016.5
20260903053528 71 46 1.0 2.0 0.00 0.08 0.00 94 1016.7
20260903053046 71 101 0.0 1.0 0.00 0.08 0.00 94 1016.8
20260903052530 71 0 0.0 1.0 0.00 0.08 0.00 94 1016.8
20260903052029 71 0 0.0 2.0 0.00 0.08 0.00 94 1016.7
20260903051546 71 81 0.0 2.0 0.00 0.08 0.00 94 1016.7
20260903051027 71 55 0.0 2.0 0.00 0.08 0.00 94 1016.5
20260903050527 71 69 0.0 2.0 0.00 0.08 0.00 93 1016.7
20260903045529 71 0 0.0 2.0 0.00 0.08 0.00 93 1016.6
20260903045028 71 88 0.0 2.0 0.00 0.08 0.00 93 1016.9
20260903044558 71 55 0.0 2.0 0.00 0.08 0.00 93 1016.9
20260903044028 71 59 0.0 2.0 0.00 0.08 0.00 93 1017.0
20260903043528 71 101 0.0 2.0 0.00 0.08 0.00 93 1016.9
20260903043047 71 88 1.0 2.0 0.00 0.08 0.00 93 1017.0
20260903042530 71 87 0.0 2.0 0.00 0.08 0.00 93 1017.2
20260903042025 71 50 0.0 2.0 0.00 0.08 0.00 93 1017.3
20260903041558 71 0 0.0 1.0 0.00 0.08 0.00 93 1017.4
20260903041028 71 0 0.0 1.0 0.00 0.08 0.00 93 1017.3
20260903040528 71 69 0.0 1.0 0.00 0.08 0.00 93 1017.5
20260903035529 71 0 0.0 2.0 0.00 0.08 0.08 93 1017.5
20260903035030 71 80 0.0 2.0 0.00 0.08 0.08 93 1017.4
20260903034556 71 0 0.0 1.0 0.00 0.08 0.08 93 1017.5
20260903034028 71 0 0.0 1.0 0.00 0.08 0.08 93 1017.3
20260903033527 71 0 0.0 1.0 0.00 0.08 0.08 93 1017.3
20260903033046 71 0 0.0 0.0 0.00 0.08 0.08 93 1017.4
20260903032528 71 0 0.0 2.0 0.00 0.08 0.08 92 1017.3
20260903032028 71 0 0.0 3.0 0.00 0.08 0.08 92 1017.2
20260903031547 71 0 0.0 3.0 0.00 0.08 0.08 92 1017.3
20260903031028 71 121 1.0 3.0 0.00 0.08 0.08 92 1017.2
20260903030534 71 161 0.0 2.0 0.00 0.08 0.08 92 1017.5
20260903030054 71 109 0.0 2.0 0.00 0.08 0.08 92 1017.6
20260903025530 71 116 0.0 2.0 0.00 0.08 0.08 92 1017.6
20260903025028 71 0 0.0 4.0 0.00 0.08 0.08 92 1017.7
20260903024553 71 0 1.0 4.0 0.00 0.08 0.08 92 1017.5
20260903024027 71 0 0.0 6.0 0.00 0.08 0.08 92 1017.5
20260903023527 71 0 0.0 6.0 0.00 0.08 0.08 92 1017.6
20260903023048 71 105 1.0 3.0 0.00 0.08 0.08 92 1017.4
20260903022525 71 110 1.0 3.0 0.00 0.08 0.08 92 1017.2
20260903022028 71 183 0.0 4.0 0.00 0.08 0.08 92 1017.1
20260903021558 72 217 1.0 4.0 0.00 0.08 0.08 92 1017.1
20260903021028 72 95 2.0 4.0 0.00 0.08 0.08 92 1017.1
20260903020530 72 136 1.0 6.0 0.00 0.08 0.08 92 1017.2
20260903020044 72 146 1.0 6.0 0.00 0.08 0.08 91 1017.1
20260903015526 72 145 1.0 4.0 0.00 0.18 0.08 91 1017.1
20260903015029 72 0 0.0 6.0 0.00 0.18 0.08 91 1017.4
20260903014603 72 122 1.0 6.0 0.00 0.18 0.08 91 1017.3
20260903014031 72 93 1.0 7.0 0.00 0.18 0.08 91 1017.5
20260903013526 72 0 1.0 7.0 0.00 0.18 0.08 91 1017.5
20260903013059 72 142 2.0 5.0 0.00 0.18 0.08 91 1017.5
20260903012526 72 142 0.0 3.0 0.00 0.18 0.08 91 1017.5
20260903012029 72 128 1.0 2.0 0.00 0.18 0.08 91 1017.5
20260903011548 72 126 0.0 6.0 0.00 0.18 0.08 91 1017.6
20260903011032 72 126 2.0 6.0 0.00 0.18 0.08 91 1017.5
20260903010527 72 123 0.0 3.0 0.00 0.18 0.08 91 1017.5
20260903010046 72 88 1.0 3.0 0.00 0.18 0.08 91 1017.4
20260903005525 72 138 0.0 3.0 0.00 0.36 0.08 90 1017.5
20260903005025 72 0 1.0 3.0 0.00 0.36 0.08 90 1017.7
20260903004557 72 0 1.0 4.0 0.00 0.36 0.08 90 1017.7
20260903004028 72 138 0.0 4.0 0.00 0.36 0.08 90 1017.6
20260903003528 72 117 1.0 4.0 0.00 0.36 0.08 90 1017.6
20260903003105 72 121 1.0 3.0 0.00 0.36 0.08 90 1017.7
20260903002530 72 95 1.0 3.0 0.00 0.36 0.08 90 1017.6
20260903002025 72 0 0.0 2.0 0.00 0.36 0.08 90 1017.5
20260903001546 72 109 0.0 2.0 0.00 0.36 0.08 90 1017.4
20260903001025 72 0 1.0 2.0 0.00 0.36 0.08 90 1017.4
20260903000525 72 57 0.0 3.0 0.00 0.36 0.08 90 1017.3
20260903000058 73 0 1.0 3.0 0.00 0.36 0.08 90 1017.3
20260902235528 73 159 0.0 2.0 0.00 0.36 0.08 90 1017.2
20260902235026 73 0 0.0 1.0 0.00 0.36 0.08 90 1017.1
20260902234552 73 0 0.0 1.0 0.00 0.36 0.08 90 1017.1
20260902234027 73 126 0.0 2.0 0.00 0.36 0.08 90 1017.2
20260902233524 73 127 0.0 4.0 0.00 0.36 0.08 90 1017.0
20260902233048 73 0 0.0 4.0 0.00 0.36 0.08 90 1017.0
20260902232529 73 109 1.0 4.0 0.00 0.36 0.08 89 1017.1
20260902232029 73 96 2.0 4.0 0.00 0.36 0.08 89 1017.1
20260902231548 73 175 1.0 6.0 0.00 0.36 0.08 89 1017.0
20260902231026 73 88 2.0 6.0 0.00 0.36 0.08 89 1017.2
20260902230527 73 88 1.0 4.0 0.00 0.36 0.08 89 1017.1
20260902230048 73 107 1.0 4.0 0.00 0.36 0.08 89 1017.3
20260902225528 73 84 1.0 3.0 0.00 0.36 0.08 89 1017.4
20260902225028 73 78 1.0 6.0 0.00 0.36 0.08 89 1017.4
20260902224607 73 114 0.0 6.0 0.00 0.36 0.08 89 1017.4
20260902224027 73 90 2.0 6.0 0.00 0.36 0.08 88 1017.4
20260902223526 74 88 1.0 3.0 0.00 0.36 0.08 89 1017.5
20260902223054 74 73 1.0 3.0 0.00 0.36 0.08 89 1017.6
20260902222528 74 143 1.0 4.0 0.00 0.36 0.08 89 1017.5
20260902222029 74 122 1.0 4.0 0.00 0.36 0.08 89 1017.6
20260902221548 74 105 2.0 6.0 0.00 0.36 0.08 89 1017.5
20260902221027 74 117 1.0 8.0 0.00 0.36 0.08 89 1017.6
20260902220526 74 74 3.0 9.0 0.00 0.36 0.08 89 1017.4
20260902220049 74 33 4.0 9.0 0.00 0.36 0.08 88 1017.4
20260902215527 74 124 1.0 8.0 0.00 0.36 0.08 89 1017.4
20260902215029 74 132 2.0 8.0 0.00 0.36 0.08 89 1017.3
20260902214613 74 89 2.0 8.0 0.00 0.36 0.08 89 1017.3
20260902214028 74 160 3.0 8.0 0.00 0.36 0.08 89 1017.1
20260902213531 74 100 0.0 6.0 0.00 0.36 0.08 89 1017.3
20260902213042 74 128 1.0 7.0 0.00 0.36 0.08 90 1017.3
20260902212525 74 120 2.0 9.0 0.00 0.36 0.08 89 1017.4
20260902212032 74 111 2.0 10.0 0.00 0.36 0.08 89 1017.4
20260902211552 74 90 4.0 10.0 0.00 0.36 0.08 89 1017.4
20260902211026 74 65 4.0 10.0 0.00 0.36 0.08 89 1017.4
20260902210527 74 101 2.0 7.0 0.00 0.36 0.08 90 1017.4
20260902210049 74 63 3.0 7.0 0.00 0.36 0.08 89 1017.5
20260902205526 74 139 2.0 7.0 0.00 0.36 0.08 91 1017.6
20260902205026 74 109 2.0 7.0 0.00 0.36 0.08 91 1017.6
20260902204543 73 114 3.0 7.0 0.00 0.36 0.08 91 1017.3
20260902204026 73 0 0.0 5.0 0.00 0.36 0.08 92 1017.4
20260902203528 73 92 2.0 8.0 0.00 0.36 0.08 92 1017.4
20260902203045 73 53 2.0 8.0 0.00 0.36 0.08 93 1017.3
20260902202527 73 136 1.0 9.0 0.00 0.36 0.08 93 1017.3
20260902202029 73 79 3.0 9.0 0.00 0.36 0.08 93 1017.1
20260902201602 73 126 2.0 7.0 0.00 0.36 0.08 93 1017.1
20260902201024 73 133 1.0 4.0 0.00 0.36 0.08 93 1017.3
20260902200527 73 76 1.0 3.0 0.00 0.36 0.08 93 1017.4
20260902200049 73 0 0.0 4.0 0.00 0.36 0.08 93 1017.5
20260902195525 73 82 1.0 7.0 0.00 0.36 0.08 93 1017.6
20260902195027 73 0 1.0 7.0 0.00 0.36 0.08 93 1017.6
20260902194551 73 65 0.0 4.0 0.00 0.36 0.08 94 1017.6
20260902194028 73 90 2.0 4.0 0.00 0.36 0.08 93 1017.6
20260902193528 73 0 1.0 3.0 0.00 0.36 0.08 94 1017.7
20260902193053 73 55 1.0 3.0 0.01 0.36 0.08 94 1017.7
20260902192527 73 83 0.0 2.0 0.02 0.36 0.08 93 1017.7
20260902192027 73 106 0.0 2.0 0.03 0.36 0.08 93 1017.7
20260902191552 73 97 0.0 2.0 0.04 0.36 0.08 93 1017.7
20260902191031 73 88 0.0 2.0 0.06 0.36 0.08 93 1017.8
20260902190526 73 89 0.0 2.0 0.07 0.36 0.08 93 1017.9
20260902190047 73 47 0.0 1.0 0.08 0.36 0.08 93 1018.1
20260902185526 73 0 0.0 1.0 0.08 0.36 0.08 92 1018.1
20260902185029 73 0 0.0 4.0 0.08 0.36 0.08 92 1018.0
20260902184551 73 107 0.0 4.0 0.08 0.36 0.08 92 1017.8
20260902184028 73 0 1.0 4.0 0.08 0.36 0.08 91 1017.6
20260902183529 73 117 0.0 3.0 0.08 0.36 0.08 91 1017.5
20260902183054 73 138 1.0 8.0 0.07 0.35 0.07 91 1017.7
20260902182527 74 150 2.0 8.0 0.06 0.34 0.06 90 1017.8
20260902182025 74 173 1.0 4.0 0.05 0.33 0.05 89 1018.0
20260902181557 74 157 1.0 5.0 0.03 0.31 0.03 88 1018.1
20260902181025 75 119 2.0 5.0 0.02 0.30 0.02 87 1018.5
20260902180527 75 148 1.0 5.0 0.01 0.29 0.01 86 1018.5
20260902180051 75 148 1.0 4.0 0.00 0.28 0.00 86 1018.8
20260902175525 75 130 0.0 2.0 0.00 0.28 0.00 86 1019.0
20260902175028 75 139 0.0 2.0 0.00 0.28 0.00 86 1019.1
20260902174557 75 140 0.0 3.0 0.00 0.28 0.00 86 1019.1
20260902174024 75 96 0.0 3.0 0.00 0.28 0.00 86 1019.1
20260902173528 75 46 0.0 2.0 0.00 0.28 0.00 85 1019.4
20260902173047 75 89 0.0 2.0 0.00 0.28 0.00 86 1019.3
20260902172526 75 101 0.0 3.0 0.00 0.28 0.00 85 1019.4
20260902172026 75 79 1.0 3.0 0.00 0.28 0.00 84 1019.5
20260902171547 75 102 0.0 2.0 0.00 0.28 0.00 84 1019.5
20260902171024 76 0 0.0 2.0 0.00 0.28 0.00 84 1019.5
20260902170527 76 49 1.0 3.0 0.00 0.28 0.00 83 1019.3
20260902170045 76 122 0.0 4.0 0.00 0.28 0.00 84 1019.3
20260902165527 76 49 2.0 4.0 0.00 0.28 0.00 84 1018.8
20260902165027 77 92 1.0 4.0 0.00 0.28 0.00 84 1018.7
20260902164553 77 112 2.0 5.0 0.00 0.28 0.00 84 1018.6
20260902164028 77 165 1.0 5.0 0.00 0.28 0.00 85 1018.6
20260902163528 76 206 2.0 6.0 0.00 0.28 0.00 85 1018.7
20260902163047 76 114 1.0 6.0 0.00 0.28 0.00 87 1018.7
20260902162535 75 0 2.0 7.0 0.00 0.28 0.00 87 1018.7
20260902162027 75 60 1.0 7.0 0.00 0.28 0.00 87 1019.0
20260902161547 75 96 3.0 7.0 0.00 0.28 0.00 88 1018.9
20260902161032 75 122 1.0 6.0 0.00 0.28 0.00 90 1018.9
20260902160530 74 121 3.0 6.0 0.00 0.28 0.00 90 1018.9
20260902160045 74 136 1.0 4.0 0.00 0.28 0.00 91 1019.1
20260902155528 73 116 2.0 4.0 0.00 0.28 0.00 90 1019.1
20260902155030 73 107 1.0 4.0 0.00 0.28 0.00 91 1019.2
20260902154547 73 123 0.0 6.0 0.00 0.28 0.00 92 1019.1
20260902154028 73 123 2.0 6.0 0.00 0.28 0.00 92 1019.0
20260902153531 72 129 3.0 6.0 0.00 0.28 0.00 92 1019.1
20260902153047 72 118 2.0 8.0 0.00 0.28 0.00 92 1019.0
20260902152524 73 88 3.0 8.0 0.00 0.28 0.00 91 1018.9
20260902152029 73 115 1.0 4.0 0.00 0.28 0.00 92 1019.0
20260902151549 73 146 1.0 4.0 0.00 0.28 0.00 91 1019.1
20260902151026 73 106 1.0 3.0 0.00 0.28 0.00 91 1019.2
20260902150525 73 0 1.0 3.0 0.00 0.28 0.00 91 1019.2
20260902150047 72 69 1.0 3.0 0.00 0.28 0.00 91 1019.3
20260902145529 72 126 1.0 3.0 0.00 0.28 0.00 91 1019.2
20260902145026 72 0 1.0 8.0 0.00 0.28 0.00 92 1019.2
20260902144552 72 134 3.0 8.0 0.00 0.28 0.00 92 1018.9
20260902144025 72 88 1.0 4.0 0.00 0.28 0.00 92 1019.1
20260902143528 72 87 1.0 4.0 0.00 0.28 0.00 93 1018.9
20260902143052 72 135 1.0 4.0 0.00 0.28 0.00 93 1019.1
20260902142526 72 46 1.0 3.0 0.00 0.28 0.00 93 1019.1
20260902142028 72 89 1.0 4.0 0.00 0.28 0.00 93 1019.0
20260902141546 72 85 0.0 4.0 0.00 0.28 0.00 93 1018.9
20260902141028 72 98 1.0 4.0 0.00 0.28 0.00 92 1019.1
20260902140529 72 44 1.0 4.0 0.00 0.28 0.00 91 1019.1
20260902140046 72 109 1.0 4.0 0.00 0.28 0.00 92 1019.1
20260902135532 72 79 1.0 4.0 0.00 0.28 0.00 91 1019.1
20260902135025 72 112 0.0 2.0 0.00 0.28 0.00 92 1018.9
20260902134546 72 137 0.0 6.0 0.00 0.28 0.00 93 1018.9
20260902134027 72 49 1.0 6.0 0.00 0.28 0.00 93 1018.8
20260902133532 72 0 2.0 4.0 0.00 0.28 0.00 93 1018.5
20260902133102 72 107 1.0 4.0 0.00 0.28 0.00 93 1018.4
20260902132528 72 69 2.0 4.0 0.00 0.28 0.00 93 1018.5
20260902132053 71 0 1.0 4.0 0.00 0.28 0.00 93 1018.6
20260902131556 71 105 1.0 6.0 0.00 0.28 0.00 93 1018.5
20260902131025 71 97 2.0 6.0 0.00 0.28 0.00 94 1018.5
20260902130526 71 100 2.0 5.0 0.00 0.28 0.00 93 1018.7
20260902130047 71 67 1.0 4.0 0.00 0.28 0.00 94 1018.7
20260902125527 71 111 1.0 4.0 0.00 0.28 0.00 94 1018.5
20260902125026 71 108 0.0 3.0 0.00 0.28 0.00 94 1018.4
20260902124545 71 51 1.0 5.0 0.00 0.28 0.00 94 1018.3
20260902124027 71 67 1.0 5.0 0.00 0.28 0.00 94 1018.5
20260902123524 71 76 2.0 4.0 0.00 0.28 0.00 94 1018.3
20260902123044 71 59 1.0 7.0 0.00 0.28 0.00 94 1018.1
20260902122532 70 84 2.0 7.0 0.00 0.28 0.00 95 1018.0
20260902122026 70 119 0.0 4.0 0.00 0.28 0.00 95 1017.9
20260902121556 70 53 1.0 4.0 0.00 0.28 0.00 95 1018.0
20260902121031 70 102 1.0 7.0 0.00 0.28 0.00 95 1017.9
20260902120525 70 76 0.0 7.0 0.00 0.28 0.00 95 1018.0
20260902120047 70 67 0.0 3.0 0.00 0.28 0.00 95 1018.0
20260902115529 70 110 1.0 3.0 0.00 0.28 0.00 95 1018.0
20260902115029 70 97 1.0 3.0 0.00 0.28 0.00 95 1018.2
20260902114551 70 92 0.0 4.0 0.00 0.28 0.00 95 1018.3
20260902114025 70 90 1.0 4.0 0.00 0.28 0.00 95 1018.2
20260902113527 70 86 0.0 4.0 0.00 0.28 0.00 95 1018.2
20260902113053 70 63 0.0 3.0 0.00 0.28 0.00 96 1018.1
20260902112527 70 77 1.0 3.0 0.00 0.28 0.00 95 1018.1
20260902112027 70 59 1.0 4.0 0.00 0.28 0.00 96 1017.9
20260902111549 70 37 1.0 4.0 0.00 0.28 0.00 95 1018.0
20260902111026 70 54 1.0 4.0 0.00 0.28 0.00 95 1018.0
20260902110527 70 94 0.0 3.0 0.00 0.28 0.00 95 1018.0
20260902110047 70 40 2.0 3.0 0.00 0.28 0.00 96 1017.9
20260902105526 70 46 0.0 3.0 0.00 0.28 0.00 96 1017.8
20260902105031 70 0 1.0 3.0 0.00 0.28 0.00 96 1017.8
20260902104601 70 44 1.0 3.0 0.00 0.28 0.00 96 1017.8
20260902104028 70 70 2.0 3.0 0.00 0.28 0.00 96 1017.6
20260902103530 70 67 1.0 3.0 0.00 0.28 0.00 95 1017.6
20260902103100 70 69 0.0 4.0 0.00 0.28 0.00 96 1017.7
20260902102528 70 63 1.0 4.0 0.00 0.28 0.00 96 1017.6
20260902102025 70 45 0.0 4.0 0.00 0.28 0.00 96 1017.7
20260902101551 70 44 1.0 4.0 0.00 0.28 0.00 96 1017.8
20260902101025 70 46 1.0 4.0 0.00 0.28 0.00 96 1017.7
20260902100531 70 38 1.0 4.0 0.00 0.28 0.00 96 1017.6
20260902100046 70 73 2.0 4.0 0.00 0.28 0.00 96 1017.5
20260902095528 70 77 1.0 3.0 0.00 0.28 0.00 96 1017.6
20260902095028 70 60 0.0 2.0 0.00 0.28 0.00 96 1017.6
20260902094553 70 46 0.0 4.0 0.00 0.28 0.00 96 1017.5
20260902094027 70 49 0.0 4.0 0.00 0.28 0.00 96 1017.4
20260902093531 70 107 0.0 2.0 0.00 0.28 0.00 96 1017.3
20260902093046 70 138 0.0 4.0 0.00 0.28 0.00 96 1017.3
20260902092529 70 138 0.0 4.0 0.00 0.28 0.00 96 1017.3
20260902092030 70 0 0.0 3.0 0.00 0.28 0.00 96 1017.3
20260902091545 70 0 0.0 3.0 0.00 0.28 0.00 96 1017.3
20260902091029 70 110 1.0 2.0 0.00 0.28 0.00 95 1017.2
20260902090526 70 95 0.0 3.0 0.00 0.28 0.00 95 1017.3
20260902090058 70 33 1.0 3.0 0.00 0.28 0.00 95 1017.1
20260902085528 70 68 0.0 3.0 0.00 0.28 0.00 95 1017.1
20260902085029 70 57 1.0 2.0 0.00 0.28 0.00 95 1017.2
20260902084547 70 69 0.0 2.0 0.00 0.28 0.00 95 1017.1